| time (UTC) | temp F | wind direction | speed MPH | gust MPH | rain 1hr in | rain 24hr in | rain mn in | humidity % | barometer mb |
| 20260831224501 | 77 | 46 | 1.0 | 2.0 | 0.00 | 0.08 | 0.08 | 81 | 1012.5 |
| 20260831223956 | 78 | 87 | 2.0 | 2.0 | 0.00 | 0.08 | 0.08 | 78 | 1012.9 |
| 20260831223452 | 79 | 307 | 1.0 | 1.0 | 0.00 | 0.08 | 0.08 | 78 | 1013.0 |
| 20260831222948 | 79 | 313 | 1.0 | 2.0 | 0.00 | 0.08 | 0.08 | 79 | 1012.6 |
| 20260831222444 | 79 | 292 | 1.0 | 2.0 | 0.00 | 0.08 | 0.08 | 79 | 1012.9 |
| 20260831221944 | 78 | 87 | 0.0 | 1.0 | 0.00 | 0.08 | 0.08 | 79 | 1013.0 |
| 20260831221440 | 79 | 134 | 1.0 | 2.0 | 0.00 | 0.08 | 0.08 | 80 | 1012.7 |
| 20260831220935 | 79 | 189 | 2.0 | 2.0 | 0.00 | 0.08 | 0.08 | 79 | 1013.0 |
| 20260831220430 | 78 | 224 | 2.0 | 3.0 | 0.00 | 0.08 | 0.08 | 80 | 1013.1 |
| 20260831215925 | 78 | 228 | 3.0 | 3.0 | 0.00 | 0.08 | 0.08 | 82 | 1012.7 |
| 20260831215421 | 78 | 205 | 1.0 | 2.0 | 0.00 | 0.08 | 0.08 | 84 | 1013.2 |
| 20260831214917 | 78 | 182 | 5.0 | 6.0 | 0.12 | 0.08 | 0.08 | 85 | 1013.2 |
| 20260831214414 | 79 | 167 | 0.0 | 1.0 | 0.12 | 0.08 | 0.08 | 82 | 1013.4 |
| 20260831213910 | 78 | 208 | 1.0 | 2.0 | 0.00 | 0.06 | 0.06 | 82 | 1013.3 |
| 20260831213406 | 78 | 286 | 1.0 | 2.0 | 0.00 | 0.06 | 0.06 | 84 | 1013.3 |
| 20260831212901 | 78 | 246 | 2.0 | 2.0 | 0.00 | 0.06 | 0.06 | 86 | 1013.6 |
| 20260831212357 | 78 | 293 | 1.0 | 1.0 | 0.00 | 0.06 | 0.06 | 88 | 1013.3 |
| 20260831211856 | 78 | 194 | 3.0 | 3.0 | 0.00 | 0.06 | 0.06 | 88 | 1013.6 |
| 20260831211356 | 78 | 300 | 1.0 | 1.0 | 0.00 | 0.06 | 0.06 | 88 | 1013.4 |
| 20260831210856 | 78 | 294 | 1.0 | 2.0 | 0.00 | 0.06 | 0.06 | 88 | 1013.4 |
| 20260831210351 | 78 | 182 | 2.0 | 2.0 | 0.00 | 0.06 | 0.06 | 88 | 1013.4 |
| 20260831205847 | 77 | 250 | 1.0 | 1.0 | 0.00 | 0.06 | 0.06 | 90 | 1013.3 |
| 20260831205343 | 77 | 293 | 2.0 | 2.0 | 0.00 | 0.06 | 0.06 | 89 | 1013.9 |
| 20260831204837 | 77 | 307 | 0.0 | 1.0 | 0.00 | 0.06 | 0.06 | 90 | 1013.5 |
| 20260831204336 | 77 | 175 | 1.0 | 3.0 | 0.00 | 0.06 | 0.06 | 91 | 1013.8 |
| 20260831203836 | 77 | 28 | 0.0 | 1.0 | 0.00 | 0.06 | 0.06 | 91 | 1013.6 |
| 20260831203331 | 77 | 182 | 1.0 | 5.0 | 0.00 | 0.06 | 0.06 | 90 | 1013.7 |
| 20260831202829 | 77 | 178 | 0.0 | 0.0 | 0.00 | 0.06 | 0.06 | 90 | 1013.5 |
| 20260831202325 | 77 | 216 | 3.0 | 3.0 | 0.00 | 0.06 | 0.06 | 90 | 1013.7 |
| 20260831201824 | 77 | 348 | 2.0 | 2.0 | 0.00 | 0.06 | 0.06 | 90 | 1013.7 |
| 20260831201323 | 77 | 231 | 2.0 | 2.0 | 0.00 | 0.06 | 0.06 | 89 | 1013.8 |
| 20260831200819 | 77 | 303 | 1.0 | 1.0 | 0.00 | 0.06 | 0.06 | 89 | 1013.6 |
| 20260831200314 | 77 | 76 | 0.0 | 0.0 | 0.00 | 0.06 | 0.06 | 89 | 1013.7 |
| 20260831195809 | 77 | 238 | 2.0 | 3.0 | 0.00 | 0.06 | 0.06 | 88 | 1013.7 |
| 20260831195306 | 77 | 315 | 1.0 | 1.0 | 0.00 | 0.06 | 0.06 | 88 | 1013.9 |
| 20260831194800 | 77 | 223 | 0.0 | 0.0 | 0.00 | 0.06 | 0.06 | 88 | 1014.2 |
| 20260831194255 | 77 | 305 | 1.0 | 2.0 | 0.00 | 0.06 | 0.06 | 87 | 1014.3 |
| 20260831193749 | 77 | 115 | 1.0 | 1.0 | 0.00 | 0.06 | 0.06 | 87 | 1014.4 |
| 20260831193244 | 77 | 54 | 1.0 | 1.0 | 0.00 | 0.06 | 0.06 | 86 | 1014.4 |
| 20260831192739 | 77 | 233 | 3.0 | 5.0 | 0.00 | 0.06 | 0.06 | 85 | 1014.7 |
| 20260831192234 | 77 | 64 | 3.0 | 5.0 | 0.00 | 0.06 | 0.06 | 85 | 1014.9 |
| 20260831191730 | 77 | 49 | 7.0 | 10.0 | 0.00 | 0.06 | 0.06 | 84 | 1014.8 |
| 20260831191226 | 77 | 53 | 1.0 | 5.0 | 0.00 | 0.06 | 0.06 | 87 | 1014.7 |
| 20260831190721 | 76 | 74 | 1.0 | 2.0 | 0.00 | 0.06 | 0.06 | 88 | 1014.9 |
| 20260831190221 | 75 | 148 | 3.0 | 5.0 | 0.00 | 0.06 | 0.06 | 91 | 1015.0 |
| 20260831185716 | 74 | 84 | 1.0 | 2.0 | 0.00 | 0.06 | 0.06 | 94 | 1015.2 |
| 20260831185211 | 73 | 89 | 0.0 | 0.0 | 0.00 | 0.06 | 0.06 | 97 | 1015.4 |
| 20260831184710 | 73 | 67 | 3.0 | 5.0 | 0.00 | 0.06 | 0.06 | 97 | 1015.5 |
| 20260831184207 | 72 | 69 | 1.0 | 2.0 | 0.00 | 0.06 | 0.06 | 98 | 1015.8 |
| 20260831183705 | 72 | 56 | 3.0 | 5.0 | 0.00 | 0.06 | 0.06 | 99 | 1015.6 |
| 20260831183200 | 72 | 96 | 1.0 | 2.0 | 0.00 | 0.06 | 0.06 | 99 | 1015.6 |
| 20260831182659 | 72 | 65 | 2.0 | 5.0 | 0.00 | 0.06 | 0.06 | 99 | 1015.6 |
| 20260831182155 | 72 | 71 | 2.0 | 3.0 | 0.00 | 0.06 | 0.06 | 99 | 1015.9 |
| 20260831181649 | 72 | 73 | 5.0 | 5.0 | 0.00 | 0.06 | 0.06 | 99 | 1015.7 |
| 20260831181144 | 71 | 89 | 3.0 | 3.0 | 0.00 | 0.06 | 0.06 | 99 | 1015.8 |
| 20260831180639 | 71 | 62 | 4.0 | 6.0 | 0.00 | 0.06 | 0.06 | 99 | 1015.7 |
| 20260831180134 | 72 | 81 | 0.0 | 1.0 | 0.00 | 0.06 | 0.06 | 99 | 1015.7 |
| 20260831175628 | 72 | 62 | 1.0 | 2.0 | 0.00 | 0.06 | 0.06 | 99 | 1015.7 |
| 20260831175126 | 72 | 93 | 2.0 | 3.0 | 0.00 | 0.06 | 0.06 | 99 | 1015.9 |
| 20260831174625 | 72 | 38 | 0.0 | 0.0 | 0.00 | 0.06 | 0.06 | 99 | 1015.7 |
| 20260831174120 | 72 | 45 | 0.0 | 0.0 | 0.00 | 0.06 | 0.06 | 99 | 1015.4 |
| 20260831173619 | 72 | 45 | 0.0 | 0.0 | 0.00 | 0.06 | 0.06 | 99 | 1015.5 |
| 20260831173115 | 72 | 212 | 0.0 | 0.0 | 0.00 | 0.06 | 0.06 | 99 | 1015.1 |
| 20260831172615 | 71 | 313 | 0.0 | 0.0 | 0.00 | 0.06 | 0.06 | 99 | 1015.2 |
| 20260831172114 | 71 | 288 | 0.0 | 0.0 | 0.00 | 0.06 | 0.06 | 99 | 1015.5 |
| 20260831171610 | 71 | 327 | 0.0 | 0.0 | 0.00 | 0.06 | 0.06 | 99 | 1015.1 |
| 20260831171108 | 71 | 30 | 0.0 | 0.0 | 0.00 | 0.06 | 0.06 | 99 | 1015.5 |
| 20260831170603 | 71 | 84 | 1.0 | 2.0 | 0.00 | 0.06 | 0.06 | 99 | 1015.5 |
| 20260831170101 | 71 | 243 | 0.0 | 0.0 | 0.00 | 0.06 | 0.06 | 99 | 1015.2 |
| 20260831165555 | 71 | 3 | 0.0 | 0.0 | 0.00 | 0.06 | 0.06 | 99 | 1015.1 |
| 20260831165052 | 71 | 41 | 0.0 | 0.0 | 0.00 | 0.06 | 0.06 | 99 | 1015.3 |
| 20260831164548 | 71 | 75 | 0.0 | 0.0 | 0.00 | 0.06 | 0.06 | 99 | 1015.3 |
| 20260831164043 | 71 | 49 | 0.0 | 0.0 | 0.00 | 0.06 | 0.06 | 99 | 1015.3 |
| 20260831163537 | 71 | 352 | 0.0 | 0.0 | 0.00 | 0.06 | 0.06 | 99 | 1015.5 |
| 20260831163033 | 71 | 78 | 0.0 | 0.0 | 0.00 | 0.06 | 0.06 | 99 | 1015.4 |
| 20260831162532 | 71 | 329 | 0.0 | 0.0 | 0.00 | 0.06 | 0.06 | 99 | 1015.7 |
| 20260831162030 | 71 | 275 | 0.0 | 0.0 | 0.00 | 0.06 | 0.06 | 99 | 1015.8 |
| 20260831161527 | 71 | 307 | 0.0 | 0.0 | 0.00 | 0.06 | 0.06 | 99 | 1016.1 |
| 20260831161023 | 71 | 285 | 0.0 | 0.0 | 0.05 | 0.06 | 0.06 | 99 | 1016.2 |
| 20260831160522 | 71 | 275 | 0.0 | 0.0 | 0.12 | 0.06 | 0.06 | 99 | 1016.6 |
| 20260831160018 | 71 | 254 | 0.0 | 0.0 | 0.14 | 0.05 | 0.05 | 99 | 1017.1 |
| 20260831155512 | 71 | 353 | 0.0 | 0.0 | 0.19 | 0.04 | 0.04 | 99 | 1016.9 |
| 20260831155007 | 71 | 214 | 1.0 | 1.0 | 0.12 | 0.03 | 0.03 | 98 | 1017.1 |
| 20260831154504 | 72 | 260 | 0.0 | 0.0 | 0.00 | 0.01 | 0.01 | 98 | 1017.2 |
| 20260831154003 | 72 | 278 | 0.0 | 0.0 | 0.05 | 0.01 | 0.01 | 96 | 1017.6 |
| 20260831153457 | 73 | 232 | 1.0 | 2.0 | 0.05 | 0.01 | 0.01 | 96 | 1017.7 |
| 20260831152954 | 73 | 243 | 1.0 | 1.0 | 0.00 | 0.00 | 0.00 | 95 | 1017.6 |
| 20260831152449 | 73 | 231 | 0.0 | 0.0 | 0.00 | 0.00 | 0.00 | 94 | 1017.7 |
| 20260831151944 | 73 | 289 | 1.0 | 1.0 | 0.00 | 0.00 | 0.00 | 93 | 1017.7 |
| 20260831151443 | 74 | 307 | 0.0 | 0.0 | 0.00 | 0.00 | 0.00 | 93 | 1017.4 |
| 20260831150939 | 74 | 311 | 2.0 | 2.0 | 0.00 | 0.00 | 0.00 | 92 | 1016.9 |
| 20260831150434 | 74 | 285 | 2.0 | 2.0 | 0.00 | 0.00 | 0.00 | 91 | 1016.8 |
| 20260831145933 | 74 | 232 | 3.0 | 3.0 | 0.00 | 0.00 | 0.00 | 91 | 1016.4 |
| 20260831145430 | 74 | 249 | 1.0 | 1.0 | 0.00 | 0.00 | 0.00 | 91 | 1016.3 |
| 20260831144925 | 73 | 293 | 2.0 | 2.0 | 0.00 | 0.00 | 0.00 | 92 | 1016.4 |
| 20260831144415 | 73 | 276 | 3.0 | 5.0 | 0.00 | 0.00 | 0.00 | 92 | 1016.3 |
| 20260831143910 | 73 | 288 | 1.0 | 1.0 | 0.00 | 0.00 | 0.00 | 93 | 1016.2 |
| 20260831143405 | 73 | 292 | 0.0 | 0.0 | 0.00 | 0.00 | 0.00 | 93 | 1016.3 |
| 20260831142901 | 73 | 301 | 0.0 | 0.0 | 0.00 | 0.00 | 0.00 | 93 | 1016.2 |
| 20260831142356 | 73 | 278 | 1.0 | 1.0 | 0.00 | 0.00 | 0.00 | 93 | 1016.0 |
| 20260831141850 | 73 | 299 | 2.0 | 2.0 | 0.00 | 0.00 | 0.00 | 93 | 1016.0 |
| 20260831141344 | 73 | 264 | 1.0 | 1.0 | 0.00 | 0.00 | 0.00 | 93 | 1015.9 |
| 20260831140839 | 73 | 280 | 0.0 | 1.0 | 0.00 | 0.00 | 0.00 | 94 | 1015.6 |
| 20260831140334 | 73 | 263 | 0.0 | 0.0 | 0.00 | 0.00 | 0.00 | 94 | 1015.9 |
| 20260831135832 | 73 | 278 | 0.0 | 0.0 | 0.00 | 0.00 | 0.00 | 94 | 1016.0 |
| 20260831135328 | 73 | 243 | 0.0 | 0.0 | 0.00 | 0.00 | 0.00 | 94 | 1015.6 |
| 20260831134823 | 73 | 240 | 0.0 | 1.0 | 0.00 | 0.00 | 0.00 | 93 | 1015.8 |
| 20260831134320 | 73 | 292 | 2.0 | 2.0 | 0.00 | 0.00 | 0.00 | 93 | 1015.8 |
| 20260831133819 | 73 | 238 | 2.0 | 2.0 | 0.00 | 0.00 | 0.00 | 93 | 1015.8 |
| 20260831133318 | 73 | 264 | 0.0 | 1.0 | 0.00 | 0.00 | 0.00 | 93 | 1015.8 |
| 20260831132814 | 73 | 277 | 2.0 | 2.0 | 0.00 | 0.00 | 0.00 | 93 | 1015.8 |
| 20260831132309 | 73 | 316 | 1.0 | 1.0 | 0.00 | 0.00 | 0.00 | 92 | 1015.8 |
| 20260831131803 | 73 | 287 | 1.0 | 1.0 | 0.00 | 0.00 | 0.00 | 93 | 1015.9 |
| 20260831131259 | 73 | 305 | 3.0 | 3.0 | 0.00 | 0.00 | 0.00 | 93 | 1015.7 |
| 20260831130754 | 72 | 282 | 0.0 | 0.0 | 0.00 | 0.00 | 0.00 | 94 | 1015.9 |
| 20260831130249 | 72 | 298 | 0.0 | 0.0 | 0.00 | 0.00 | 0.00 | 95 | 1015.7 |
| 20260831125748 | 71 | 283 | 0.0 | 1.0 | 0.00 | 0.00 | 0.00 | 95 | 1015.8 |
| 20260831125244 | 71 | 278 | 0.0 | 0.0 | 0.00 | 0.00 | 0.00 | 96 | 1015.7 |
| 20260831124738 | 71 | 295 | 0.0 | 1.0 | 0.00 | 0.00 | 0.00 | 97 | 1015.6 |
| 20260831124235 | 71 | 308 | 0.0 | 0.0 | 0.00 | 0.00 | 0.00 | 98 | 1015.5 |
| 20260831123734 | 70 | 272 | 0.0 | 0.0 | 0.00 | 0.00 | 0.00 | 99 | 1015.3 |
| 20260831123233 | 70 | 293 | 0.0 | 0.0 | 0.00 | 0.00 | 0.00 | 99 | 1015.3 |
| 20260831122728 | 70 | 294 | 0.0 | 0.0 | 0.00 | 0.00 | 0.00 | 99 | 1015.3 |
| 20260831122224 | 70 | 326 | 0.0 | 0.0 | 0.00 | 0.00 | 0.00 | 99 | 1015.5 |
| 20260831121722 | 69 | 281 | 0.0 | 0.0 | 0.00 | 0.00 | 0.00 | 99 | 1015.4 |
| 20260831121220 | 69 | 279 | 0.0 | 0.0 | 0.00 | 0.00 | 0.00 | 99 | 1015.4 |
| 20260831120715 | 69 | 285 | 0.0 | 0.0 | 0.00 | 0.00 | 0.00 | 99 | 1015.7 |
| 20260831120209 | 69 | 299 | 0.0 | 0.0 | 0.00 | 0.00 | 0.00 | 99 | 1015.5 |
| 20260831115705 | 69 | 300 | 0.0 | 0.0 | 0.00 | 0.00 | 0.00 | 99 | 1015.5 |
| 20260831115201 | 69 | 296 | 0.0 | 0.0 | 0.00 | 0.00 | 0.00 | 99 | 1015.5 |
| 20260831114700 | 69 | 297 | 0.0 | 0.0 | 0.00 | 0.00 | 0.00 | 99 | 1015.7 |
| 20260831114159 | 68 | 297 | 0.0 | 0.0 | 0.00 | 0.00 | 0.00 | 99 | 1015.5 |
| 20260831113654 | 68 | 298 | 0.0 | 0.0 | 0.00 | 0.00 | 0.00 | 99 | 1015.5 |
| 20260831113149 | 68 | 298 | 0.0 | 0.0 | 0.00 | 0.00 | 0.00 | 99 | 1015.4 |
| 20260831112648 | 68 | 333 | 0.0 | 0.0 | 0.00 | 0.00 | 0.00 | 99 | 1015.4 |
| 20260831112144 | 68 | 295 | 0.0 | 0.0 | 0.00 | 0.00 | 0.00 | 99 | 1015.5 |
| 20260831111639 | 68 | 291 | 0.0 | 0.0 | 0.00 | 0.00 | 0.00 | 99 | 1015.5 |
| 20260831111135 | 68 | 290 | 0.0 | 0.0 | 0.00 | 0.00 | 0.00 | 99 | 1015.5 |
| 20260831110631 | 68 | 286 | 0.0 | 0.0 | 0.00 | 0.00 | 0.00 | 99 | 1015.6 |
| 20260831110126 | 68 | 286 | 0.0 | 0.0 | 0.00 | 0.00 | 0.00 | 99 | 1015.8 |
| 20260831105625 | 68 | 285 | 0.0 | 0.0 | 0.00 | 0.00 | 0.00 | 99 | 1015.8 |
| 20260831105120 | 68 | 292 | 0.0 | 0.0 | 0.00 | 0.00 | 0.00 | 99 | 1015.8 |
| 20260831104615 | 68 | 281 | 0.0 | 0.0 | 0.00 | 0.00 | 0.00 | 99 | 1015.9 |
| 20260831104112 | 68 | 313 | 0.0 | 0.0 | 0.00 | 0.00 | 0.00 | 99 | 1015.9 |
| 20260831103606 | 68 | 320 | 0.0 | 0.0 | 0.00 | 0.00 | 0.00 | 99 | 1015.7 |
| 20260831103057 | 68 | 318 | 0.0 | 0.0 | 0.00 | 0.00 | 0.00 | 99 | 1015.6 |
| 20260831102556 | 68 | 309 | 0.0 | 0.0 | 0.00 | 0.00 | 0.00 | 99 | 1015.8 |
| 20260831102052 | 68 | 298 | 0.0 | 0.0 | 0.00 | 0.00 | 0.00 | 99 | 1015.7 |
| 20260831101546 | 68 | 318 | 0.0 | 0.0 | 0.00 | 0.00 | 0.00 | 99 | 1015.6 |
| 20260831101043 | 67 | 312 | 0.0 | 0.0 | 0.00 | 0.00 | 0.00 | 99 | 1015.9 |
| 20260831100538 | 67 | 312 | 0.0 | 0.0 | 0.00 | 0.00 | 0.00 | 99 | 1015.7 |
| 20260831100034 | 67 | 316 | 0.0 | 0.0 | 0.00 | 0.00 | 0.00 | 99 | 1015.6 |
| 20260831095532 | 67 | 305 | 0.0 | 0.0 | 0.00 | 0.00 | 0.00 | 99 | 1015.7 |
| 20260831095032 | 67 | 289 | 0.0 | 0.0 | 0.00 | 0.00 | 0.00 | 99 | 1015.3 |
| 20260831094529 | 67 | 295 | 0.0 | 0.0 | 0.00 | 0.00 | 0.00 | 99 | 1015.4 |
| 20260831094024 | 67 | 289 | 0.0 | 0.0 | 0.00 | 0.00 | 0.00 | 99 | 1015.6 |
| 20260831093519 | 67 | 303 | 0.0 | 0.0 | 0.00 | 0.00 | 0.00 | 99 | 1015.4 |
| 20260831093016 | 67 | 285 | 0.0 | 0.0 | 0.00 | 0.00 | 0.00 | 99 | 1015.6 |
| 20260831092511 | 67 | 299 | 0.0 | 0.0 | 0.00 | 0.00 | 0.00 | 99 | 1015.6 |
| 20260831092007 | 67 | 317 | 0.0 | 0.0 | 0.00 | 0.00 | 0.00 | 99 | 1015.6 |
| 20260831091502 | 67 | 317 | 0.0 | 0.0 | 0.00 | 0.00 | 0.00 | 99 | 1015.5 |
| 20260831090956 | 67 | 311 | 0.0 | 0.0 | 0.00 | 0.00 | 0.00 | 99 | 1015.6 |
| 20260831090453 | 67 | 304 | 0.0 | 0.0 | 0.00 | 0.00 | 0.00 | 99 | 1015.6 |
| 20260831085948 | 67 | 287 | 0.0 | 0.0 | 0.00 | 0.00 | 0.00 | 99 | 1015.4 |
| 20260831085444 | 67 | 343 | 0.0 | 0.0 | 0.00 | 0.00 | 0.00 | 99 | 1015.3 |
| 20260831084943 | 67 | 328 | 0.0 | 0.0 | 0.00 | 0.00 | 0.00 | 99 | 1015.5 |
| 20260831084439 | 67 | 291 | 0.0 | 0.0 | 0.00 | 0.00 | 0.00 | 99 | 1015.4 |
| 20260831083936 | 67 | 303 | 0.0 | 0.0 | 0.00 | 0.00 | 0.00 | 99 | 1015.2 |
| 20260831083430 | 67 | 289 | 0.0 | 0.0 | 0.00 | 0.00 | 0.00 | 99 | 1015.5 |
| 20260831082929 | 67 | 309 | 0.0 | 0.0 | 0.00 | 0.00 | 0.00 | 99 | 1015.2 |
| 20260831082424 | 67 | 309 | 0.0 | 0.0 | 0.00 | 0.00 | 0.00 | 99 | 1015.0 |
| 20260831081919 | 67 | 299 | 0.0 | 0.0 | 0.00 | 0.00 | 0.00 | 99 | 1015.1 |
| 20260831081415 | 67 | 280 | 0.0 | 0.0 | 0.00 | 0.00 | 0.00 | 99 | 1015.1 |
| 20260831080911 | 67 | 304 | 0.0 | 0.0 | 0.00 | 0.00 | 0.00 | 99 | 1015.0 |
| 20260831080406 | 67 | 328 | 0.0 | 0.0 | 0.00 | 0.00 | 0.00 | 99 | 1015.1 |
| 20260831075901 | 67 | 310 | 0.0 | 0.0 | 0.00 | 0.00 | 0.00 | 99 | 1014.9 |
| 20260831075356 | 67 | 301 | 0.0 | 0.0 | 0.00 | 0.00 | 0.00 | 99 | 1015.1 |
| 20260831074851 | 68 | 290 | 0.0 | 0.0 | 0.00 | 0.00 | 0.00 | 99 | 1015.0 |
| 20260831074350 | 68 | 295 | 0.0 | 0.0 | 0.00 | 0.00 | 0.00 | 99 | 1015.0 |
| 20260831073846 | 68 | 305 | 0.0 | 0.0 | 0.00 | 0.00 | 0.00 | 98 | 1015.2 |
| 20260831073345 | 68 | 322 | 0.0 | 0.0 | 0.00 | 0.00 | 0.00 | 98 | 1015.1 |
| 20260831072840 | 68 | 292 | 0.0 | 0.0 | 0.00 | 0.00 | 0.00 | 97 | 1015.3 |
| 20260831072336 | 69 | 292 | 0.0 | 0.0 | 0.00 | 0.00 | 0.00 | 96 | 1015.3 |
| 20260831071832 | 69 | 313 | 0.0 | 0.0 | 0.00 | 0.00 | 0.00 | 96 | 1015.4 |
| 20260831071331 | 69 | 285 | 0.0 | 0.0 | 0.00 | 0.00 | 0.00 | 96 | 1015.4 |
| 20260831070826 | 69 | 283 | 0.0 | 0.0 | 0.00 | 0.00 | 0.00 | 96 | 1015.3 |
| 20260831070325 | 69 | 329 | 0.0 | 0.0 | 0.00 | 0.00 | 0.00 | 97 | 1015.7 |
| 20260831065824 | 69 | 251 | 0.0 | 0.0 | 0.00 | 0.00 | 0.00 | 97 | 1015.5 |
| 20260831065322 | 69 | 315 | 0.0 | 0.0 | 0.00 | 0.00 | 0.00 | 97 | 1015.3 |
| 20260831064817 | 69 | 315 | 0.0 | 1.0 | 0.00 | 0.00 | 0.00 | 97 | 1015.8 |
| 20260831064313 | 69 | 319 | 0.0 | 0.0 | 0.00 | 0.00 | 0.00 | 96 | 1015.7 |
| 20260831063809 | 69 | 292 | 0.0 | 0.0 | 0.00 | 0.00 | 0.00 | 96 | 1015.6 |
| 20260831063304 | 69 | 285 | 0.0 | 0.0 | 0.00 | 0.00 | 0.00 | 95 | 1015.6 |
| 20260831062803 | 70 | 287 | 0.0 | 0.0 | 0.00 | 0.00 | 0.00 | 95 | 1015.8 |
| 20260831062258 | 70 | 274 | 0.0 | 0.0 | 0.00 | 0.00 | 0.00 | 95 | 1015.6 |
| 20260831061756 | 70 | 286 | 0.0 | 0.0 | 0.00 | 0.00 | 0.00 | 94 | 1015.7 |
| 20260831061251 | 70 | 297 | 0.0 | 0.0 | 0.00 | 0.00 | 0.00 | 94 | 1016.1 |
| 20260831060748 | 70 | 293 | 0.0 | 0.0 | 0.00 | 0.00 | 0.00 | 94 | 1015.9 |
| 20260831060247 | 70 | 280 | 0.0 | 1.0 | 0.00 | 0.00 | 0.00 | 94 | 1015.9 |
| 20260831055747 | 70 | 293 | 0.0 | 0.0 | 0.00 | 0.00 | 0.00 | 94 | 1016.0 |
| 20260831055242 | 70 | 271 | 1.0 | 2.0 | 0.00 | 0.00 | 0.00 | 94 | 1016.2 |
| 20260831054737 | 70 | 279 | 0.0 | 0.0 | 0.00 | 0.00 | 0.00 | 94 | 1016.0 |
| 20260831054232 | 71 | 296 | 0.0 | 0.0 | 0.00 | 0.00 | 0.00 | 93 | 1016.0 |
| 20260831053731 | 71 | 286 | 0.0 | 0.0 | 0.00 | 0.00 | 0.00 | 93 | 1015.8 |
| 20260831053230 | 71 | 258 | 1.0 | 2.0 | 0.00 | 0.00 | 0.00 | 93 | 1015.8 |
| 20260831052729 | 71 | 287 | 0.0 | 0.0 | 0.00 | 0.00 | 0.00 | 92 | 1016.1 |
| 20260831052223 | 71 | 271 | 0.0 | 1.0 | 0.00 | 0.00 | 0.00 | 92 | 1015.9 |
| 20260831051722 | 71 | 340 | 0.0 | 0.0 | 0.00 | 0.00 | 0.00 | 92 | 1015.9 |
| 20260831051220 | 71 | 265 | 1.0 | 1.0 | 0.00 | 0.00 | 0.00 | 92 | 1016.0 |
| 20260831050715 | 71 | 290 | 1.0 | 1.0 | 0.00 | 0.00 | 0.00 | 92 | 1015.9 |
| 20260831050214 | 72 | 336 | 0.0 | 0.0 | 0.00 | 0.00 | 0.00 | 91 | 1016.0 |
| 20260831045709 | 72 | 304 | 0.0 | 1.0 | 0.00 | 0.00 | 0.00 | 91 | 1015.8 |
| 20260831045203 | 72 | 280 | 1.0 | 2.0 | 0.00 | 0.00 | 0.00 | 91 | 1015.9 |
| 20260831044658 | 72 | 242 | 5.0 | 7.0 | 0.00 | 0.00 | 0.00 | 91 | 1015.6 |
| 20260831044154 | 72 | 269 | 0.0 | 0.0 | 0.00 | 0.00 | 0.00 | 92 | 1016.0 |
| 20260831043649 | 72 | 295 | 0.0 | 0.0 | 0.00 | 0.00 | 0.00 | 92 | 1015.9 |
| 20260831043144 | 72 | 257 | 0.0 | 1.0 | 0.00 | 0.00 | 0.00 | 92 | 1015.9 |
| 20260831042643 | 72 | 277 | 2.0 | 2.0 | 0.00 | 0.00 | 0.00 | 93 | 1015.9 |
| 20260831042138 | 72 | 220 | 1.0 | 2.0 | 0.00 | 0.00 | 0.00 | 93 | 1015.6 |
| 20260831041632 | 71 | 308 | 2.0 | 2.0 | 0.00 | 0.00 | 0.00 | 93 | 1015.6 |
| 20260831041127 | 71 | 280 | 1.0 | 1.0 | 0.00 | 0.00 | 0.00 | 94 | 1015.8 |
| 20260831040622 | 71 | 295 | 2.0 | 3.0 | 0.00 | 0.00 | 0.00 | 94 | 1015.8 |
| 20260831040121 | 71 | 261 | 1.0 | 1.0 | 0.00 | 0.00 | 0.00 | 94 | 1015.9 |
| 20260831035620 | 71 | 285 | 2.0 | 2.0 | 0.00 | 1.01 | 1.01 | 94 | 1015.8 |
| 20260831035115 | 71 | 294 | 1.0 | 1.0 | 0.00 | 1.01 | 1.01 | 94 | 1016.0 |
| 20260831034614 | 71 | 217 | 1.0 | 1.0 | 0.00 | 1.01 | 1.01 | 94 | 1016.0 |
| 20260831034109 | 71 | 21 | 0.0 | 1.0 | 0.00 | 1.01 | 1.01 | 93 | 1015.9 |
| 20260831033605 | 71 | 266 | 1.0 | 1.0 | 0.00 | 1.01 | 1.01 | 94 | 1015.9 |
| 20260831033100 | 71 | 228 | 0.0 | 0.0 | 0.00 | 1.01 | 1.01 | 94 | 1015.9 |
| 20260831032559 | 71 | 66 | 0.0 | 0.0 | 0.00 | 1.01 | 1.01 | 94 | 1015.8 |
| 20260831032055 | 71 | 288 | 0.0 | 0.0 | 0.00 | 1.01 | 1.01 | 94 | 1015.9 |
| 20260831031554 | 71 | 254 | 0.0 | 0.0 | 0.00 | 1.01 | 1.01 | 94 | 1015.9 |
| 20260831031054 | 71 | 260 | 0.0 | 0.0 | 0.00 | 1.01 | 1.01 | 94 | 1015.7 |
| 20260831030553 | 71 | 252 | 0.0 | 0.0 | 0.00 | 1.01 | 1.01 | 94 | 1015.7 |
| 20260831030052 | 71 | 14 | 0.0 | 0.0 | 0.00 | 1.01 | 1.01 | 94 | 1015.7 |
| 20260831025551 | 71 | 297 | 1.0 | 2.0 | 0.00 | 1.01 | 1.01 | 94 | 1015.9 |
| 20260831025046 | 71 | 58 | 0.0 | 1.0 | 0.00 | 1.01 | 1.01 | 94 | 1015.9 |
| 20260831024542 | 71 | 312 | 0.0 | 1.0 | 0.00 | 1.01 | 1.01 | 94 | 1015.8 |
| 20260831024041 | 71 | 298 | 1.0 | 1.0 | 0.00 | 1.01 | 1.01 | 94 | 1015.7 |
| 20260831023539 | 71 | 189 | 0.0 | 0.0 | 0.00 | 1.01 | 1.01 | 94 | 1015.5 |
| 20260831023034 | 71 | 305 | 0.0 | 0.0 | 0.00 | 1.01 | 1.01 | 93 | 1015.7 |
| 20260831022533 | 71 | 320 | 0.0 | 0.0 | 0.00 | 1.01 | 1.01 | 93 | 1015.3 |
| 20260831022029 | 71 | 27 | 0.0 | 0.0 | 0.00 | 1.01 | 1.01 | 93 | 1015.3 |
| 20260831021527 | 71 | 22 | 0.0 | 0.0 | 0.00 | 1.01 | 1.01 | 93 | 1015.4 |
| 20260831021024 | 71 | 301 | 1.0 | 1.0 | 0.00 | 1.01 | 1.01 | 93 | 1015.4 |
| 20260831020519 | 71 | 30 | 0.0 | 0.0 | 0.00 | 1.01 | 1.01 | 92 | 1015.6 |
| 20260831020014 | 71 | 280 | 0.0 | 0.0 | 0.00 | 1.01 | 1.01 | 92 | 1015.3 |
| 20260831015509 | 71 | 144 | 0.0 | 1.0 | 0.00 | 1.01 | 1.01 | 92 | 1015.3 |
| 20260831015004 | 71 | 100 | 2.0 | 2.0 | 0.00 | 1.01 | 1.01 | 92 | 1015.5 |
| 20260831014458 | 71 | 71 | 0.0 | 0.0 | 0.00 | 1.01 | 1.01 | 92 | 1015.5 |
| 20260831013954 | 71 | 265 | 0.0 | 0.0 | 0.00 | 1.01 | 1.01 | 91 | 1015.2 |
| 20260831013450 | 71 | 313 | 0.0 | 0.0 | 0.00 | 1.01 | 1.01 | 91 | 1015.2 |
| 20260831012943 | 71 | 314 | 0.0 | 0.0 | 0.00 | 1.01 | 1.01 | 91 | 1015.1 |
| 20260831012439 | 71 | 287 | 1.0 | 1.0 | 0.00 | 1.01 | 1.01 | 91 | 1015.0 |
| 20260831011938 | 72 | 297 | 0.0 | 1.0 | 0.00 | 1.01 | 1.01 | 90 | 1015.0 |
| 20260831011433 | 72 | 266 | 2.0 | 3.0 | 0.00 | 1.01 | 1.01 | 90 | 1014.8 |
| 20260831010929 | 72 | 31 | 0.0 | 0.0 | 0.00 | 1.01 | 1.01 | 91 | 1014.9 |
| 20260831010424 | 71 | 208 | 0.0 | 0.0 | 0.00 | 1.01 | 1.01 | 91 | 1014.8 |
| 20260831005920 | 71 | 271 | 0.0 | 0.0 | 0.00 | 1.01 | 1.01 | 91 | 1015.0 |
| 20260831005415 | 71 | 187 | 0.0 | 0.0 | 0.00 | 1.01 | 1.01 | 91 | 1014.8 |
| 20260831004909 | 72 | 233 | 1.0 | 1.0 | 0.00 | 1.01 | 1.01 | 91 | 1014.8 |
| 20260831004406 | 72 | 190 | 1.0 | 1.0 | 0.00 | 1.01 | 1.01 | 90 | 1014.6 |
| 20260831003901 | 72 | 228 | 0.0 | 0.0 | 0.00 | 1.01 | 1.01 | 90 | 1014.7 |
| 20260831003357 | 72 | 15 | 0.0 | 1.0 | 0.00 | 1.01 | 1.01 | 89 | 1014.6 |
| 20260831002857 | 72 | 201 | 1.0 | 3.0 | 0.00 | 1.01 | 1.01 | 90 | 1014.6 |
| 20260831002356 | 73 | 297 | 0.0 | 0.0 | 0.00 | 1.01 | 1.01 | 89 | 1014.4 |
| 20260831001851 | 73 | 354 | 0.0 | 0.0 | 0.00 | 1.01 | 1.01 | 89 | 1014.6 |
| 20260831001351 | 73 | 45 | 0.0 | 0.0 | 0.00 | 1.01 | 1.01 | 89 | 1014.6 |
| 20260831000849 | 73 | 338 | 0.0 | 0.0 | 0.00 | 1.01 | 1.01 | 88 | 1014.8 |
| 20260831000344 | 73 | 276 | 0.0 | 0.0 | 0.00 | 1.01 | 1.01 | 88 | 1014.9 |
| 20260830235842 | 73 | 67 | 1.0 | 2.0 | 0.00 | 1.01 | 1.01 | 88 | 1014.7 |
| 20260830235337 | 73 | 20 | 0.0 | 1.0 | 0.00 | 1.01 | 1.01 | 87 | 1014.7 |
| 20260830234833 | 73 | 333 | 0.0 | 0.0 | 0.00 | 1.01 | 1.01 | 88 | 1014.6 |
| 20260830234328 | 73 | 287 | 0.0 | 1.0 | 0.00 | 1.01 | 1.01 | 88 | 1014.8 |
| 20260830233824 | 73 | 198 | 3.0 | 3.0 | 0.00 | 1.01 | 1.01 | 88 | 1014.6 |
| 20260830233319 | 73 | 251 | 2.0 | 3.0 | 0.00 | 1.01 | 1.01 | 87 | 1015.0 |
| 20260830232815 | 74 | 79 | 0.0 | 0.0 | 0.00 | 1.01 | 1.01 | 87 | 1014.8 |
| 20260830232310 | 74 | 280 | 0.0 | 0.0 | 0.00 | 1.01 | 1.01 | 87 | 1014.8 |
| 20260830231807 | 75 | 205 | 1.0 | 2.0 | 0.00 | 1.01 | 1.01 | 86 | 1014.5 |
| 20260830231307 | 75 | 37 | 0.0 | 1.0 | 0.00 | 1.01 | 1.01 | 85 | 1014.7 |
| 20260830230801 | 75 | 65 | 1.0 | 2.0 | 0.00 | 1.01 | 1.01 | 85 | 1014.7 |
| 20260830230257 | 75 | 248 | 0.0 | 0.0 | 0.00 | 1.01 | 1.01 | 85 | 1014.8 |
| 20260830225756 | 75 | 206 | 0.0 | 0.0 | 0.00 | 1.01 | 1.01 | 85 | 1014.7 |
| 20260830225251 | 75 | 47 | 1.0 | 1.0 | 0.00 | 1.01 | 1.01 | 84 | 1014.8 |